Flag for Poland Weather past 2 weeks in Tarnów, Poland

Now
74 °F

Mild.


Feels Like: 77 °F
Forecast: 68 / 95 °F
Wind: 1 mph from South

Location: Tarnow

Current Time: Jul 5, 2015 at 9:11:42 AM

Latest Report: Jul 5, 2015 at 8:00 AM


Visibility: 16 mi

Pressure: 30.11 "Hg

Humidity: 58%

Dew point: 58 °F

Location of TarnówLocation

Historic Weather in Tarnów — Graph

°F

Tarnów temperature yesterday

Maximum temperature yesterday: 88 °F (at 4:00 PM)
Minimum temperature yesterday: 52 °F (at 5:00 AM)
Average temperature yesterday: 73 °F

Past Weeks' High & Low Weather Summary

 TemperatureHumidityPressure
High88 °F (Jul 4, 4:00 PM)99% (Jun 22, 6:00 AM)30.39 "Hg (Jun 22, 6:00 AM)
Low42 °F (Jun 22, 5:00 AM)26% (Jul 4, 2:00 PM)29.75 "Hg (Jun 23, 10:00 AM)
Average63 °F69%30.11 "Hg
* Reported Jun 20 8:00 AM — Jul 5 8:00 AM, Tarnów, Weather by CustomWeather, © 2015

Note: Actual official high and low records may vary slightly from our data, if they occured in-between our weather recording intervals... More about our weather records

Advertising

Tarnów weather history for previous 24 hours

 ConditionsComfort  
Time TempWeatherWind HumidityBarometerVisibility
8:00 AM
Sun, Jul 5
74 °FMild.1 mph58%30.11 "Hg16 mi
7:00 AM68 °FMild.1 mph72%30.12 "Hg14 mi
6:00 AM60 °FCool.No wind95%30.13 "Hg9 mi
4:00 AM56 °FCool.1 mph93%30.14 "Hg6 mi
3:00 AM57 °FCool.No wind91%30.14 "Hg7 mi
2:00 AM58 °FCool.No wind90%30.15 "Hg8 mi
1:00 AM60 °FCool.No wind84%30.14 "Hg11 mi
12:00 AM62 °FCool.No wind78%30.14 "Hg10 mi
10:00 PM
Sat, Jul 4
66 °FMild.No wind67%30.15 "Hg14 mi
9:00 PM72 °FMild.1 mph58%30.14 "Hg16 mi
8:00 PM80 °FPleasantly warm.1 mph38%30.13 "Hg31 mi
7:00 PM86 °FPleasantly warm.1 mph29%30.14 "Hg25 mi
6:00 PM87 °FPleasantly warm.1 mph27%30.14 "Hg25 mi
5:00 PM87 °FPleasantly warm.2 mph27%30.16 "Hg25 mi
4:00 PM88 °FPleasantly warm.2 mph27%30.17 "Hg25 mi
3:00 PM87 °FPleasantly warm.1 mph27%30.19 "Hg22 mi
2:00 PM86 °FPleasantly warm.1 mph26%30.20 "Hg22 mi
1:00 PM85 °FPleasantly warm.2 mph31%30.22 "Hg19 mi
12:00 PM82 °FPleasantly warm.2 mph30%30.24 "Hg19 mi
11:00 AM81 °FPleasantly warm.2 mph40%30.25 "Hg22 mi
10:00 AM79 °FWarm.2 mph41%30.26 "Hg16 mi
9:00 AM76 °FMild.1 mph52%30.27 "Hg16 mi
Weather by CustomWeather, © 2015

See weather overviewHow to use our weather pages